BEIDOU-2 IGSO-4

Last updated on Wed Oct 29 2025 00:02:47 GMT+0000 (Coordinated Universal Time)

1 37763U 11038A 25301.49177251 .00000007 00000+0 00000+0 0 9991 2 37763 54.5860 167.7522 0147510 230.3192 268.3579 1.00290598 52320
UTC large
Height (km)
Speed (km/s)
/
Latitude / Longitude
Inclination (degrees)
Orbital Period (minutes)
Azimuth
Elevation
Range (km)
Doppler Factor

Next 0 passes for location: London (51.5072 / 0.1276)

Sorry there are no passes over London.